#Datum;Uhrzeit;WR;Pac;DaySum;Status;WR;Pac;DaySum;Status;Pdc1;Udc;Temp;WR;Pac;DaySum;Status;Pdc1;Udc;Temp;WR;Pac;DaySum;Status;Pdc1;Udc;Temp;WR;Pac;DaySum;Status;Pdc1;Pdc2;Udc1;Udc2;Temp;WR;Pac;DaySum;Status;Pdc1;Pdc2;Udc1;Udc2;Temp;WR;Pac;DaySum;Status;Pdc1;Udc;Temp;WR;Pac;DaySum;Status;Pdc1;Udc;Temp;WR;Pac;DaySum;Status;Pdc1;Udc;Temp
29.10.19;23:55:00;1;278;7972;0;2;0;3943;0;0;0;0;3;0;2429;0;0;0;0;4;0;3357;0;0;0;0;5;0;8428;0;0;0;0;0;0;6;0;6294;0;0;0;0;0;0;7;0;4155;0;0;0;0;8;0;4188;0;0;0;0;9;0;2223;0;0;0;0
29.10.19;23:50:00;1;280;7949;0;2;0;3943;0;0;0;0;3;0;2429;0;0;0;0;4;0;3357;0;0;0;0;5;0;8428;0;0;0;0;0;0;6;0;6294;0;0;0;0;0;0;7;0;4155;0;0;0;0;8;0;4188;0;0;0;0;9;0;2223;0;0;0;0
29.10.19;23:45:00;1;282;7926;0;2;0;3943;0;0;0;0;3;0;2429;0;0;0;0;4;0;3357;0;0;0;0;5;0;8428;0;0;0;0;0;0;6;0;6294;0;0;0;0;0;0;7;0;4155;0;0;0;0;8;0;4188;0;0;0;0;9;0;2223;0;0;0;0
29.10.19;23:40:00;1;292;7902;0;2;0;3943;0;0;0;0;3;0;2429;0;0;0;0;4;0;3357;0;0;0;0;5;0;8428;0;0;0;0;0;0;6;0;6294;0;0;0;0;0;0;7;0;4155;0;0;0;0;8;0;4188;0;0;0;0;9;0;2223;0;0;0;0
29.10.19;23:35:00;1;351;7877;0;2;0;3943;0;0;0;0;3;0;2429;0;0;0;0;4;0;3357;0;0;0;0;5;0;8428;0;0;0;0;0;0;6;0;6294;0;0;0;0;0;0;7;0;4155;0;0;0;0;8;0;4188;0;0;0;0;9;0;2223;0;0;0;0
29.10.19;23:30:00;1;315;7848;0;2;0;3943;0;0;0;0;3;0;2429;0;0;0;0;4;0;3357;0;0;0;0;5;0;8428;0;0;0;0;0;0;6;0;6294;0;0;0;0;0;0;7;0;4155;0;0;0;0;8;0;4188;0;0;0;0;9;0;2223;0;0;0;0
29.10.19;23:25:00;1;258;7823;0;2;0;3943;0;0;0;0;3;0;2429;0;0;0;0;4;0;3357;0;0;0;0;5;0;8428;0;0;0;0;0;0;6;0;6294;0;0;0;0;0;0;7;0;4155;0;0;0;0;8;0;4188;0;0;0;0;9;0;2223;0;0;0;0
29.10.19;23:20:00;1;254;7801;0;2;0;3943;0;0;0;0;3;0;2429;0;0;0;0;4;0;3357;0;0;0;0;5;0;8428;0;0;0;0;0;0;6;0;6294;0;0;0;0;0;0;7;0;4155;0;0;0;0;8;0;4188;0;0;0;0;9;0;2223;0;0;0;0
29.10.19;23:15:00;1;231;7780;0;2;0;3943;0;0;0;0;3;0;2429;0;0;0;0;4;0;3357;0;0;0;0;5;0;8428;0;0;0;0;0;0;6;0;6294;0;0;0;0;0;0;7;0;4155;0;0;0;0;8;0;4188;0;0;0;0;9;0;2223;0;0;0;0
29.10.19;23:10:00;1;301;7760;0;2;0;3943;0;0;0;0;3;0;2429;0;0;0;0;4;0;3357;0;0;0;0;5;0;8428;0;0;0;0;0;0;6;0;6294;0;0;0;0;0;0;7;0;4155;0;0;0;0;8;0;4188;0;0;0;0;9;0;2223;0;0;0;0
29.10.19;23:05:00;1;225;7735;0;2;0;3943;0;0;0;0;3;0;2429;0;0;0;0;4;0;3357;0;0;0;0;5;0;8428;0;0;0;0;0;0;6;0;6294;0;0;0;0;0;0;7;0;4155;0;0;0;0;8;0;4188;0;0;0;0;9;0;2223;0;0;0;0
29.10.19;23:00:00;1;269;7716;0;2;0;3943;0;0;0;0;3;0;2429;0;0;0;0;4;0;3357;0;0;0;0;5;0;8428;0;0;0;0;0;0;6;0;6294;0;0;0;0;0;0;7;0;4155;0;0;0;0;8;0;4188;0;0;0;0;9;0;2223;0;0;0;0
29.10.19;22:55:00;1;266;7694;0;2;0;3943;0;0;0;0;3;0;2429;0;0;0;0;4;0;3357;0;0;0;0;5;0;8428;2;0;0;0;0;0;6;0;6294;2;0;0;0;0;0;7;0;4155;0;0;0;0;8;0;4188;0;0;0;0;9;0;2223;0;0;0;0
29.10.19;22:50:00;1;270;7672;0;2;0;3943;0;0;0;0;3;0;2429;0;0;0;0;4;0;3357;0;0;0;0;5;0;8428;2;0;0;0;0;0;6;0;6294;2;0;0;0;0;0;7;0;4155;0;0;0;0;8;0;4188;0;0;0;0;9;0;2223;0;0;0;0
29.10.19;22:45:00;1;397;7649;0;2;0;3943;0;0;0;0;3;0;2429;0;0;0;0;4;0;3357;0;0;0;0;5;0;8428;2;0;0;0;0;0;6;0;6294;2;0;0;0;0;0;7;0;4155;0;0;0;0;8;0;4188;0;0;0;0;9;0;2223;0;0;0;0
29.10.19;22:40:00;1;588;7615;0;2;0;3943;0;0;0;0;3;0;2429;0;0;0;0;4;0;3357;0;0;0;0;5;0;8428;2;0;0;0;0;0;6;0;6294;2;0;0;0;0;0;7;0;4155;0;0;0;0;8;0;4188;0;0;0;0;9;0;2223;0;0;0;0
29.10.19;22:35:00;1;787;7545;0;2;0;3943;0;0;0;0;3;0;2429;0;0;0;0;4;0;3357;0;0;0;0;5;0;8428;2;0;0;0;0;0;6;0;6294;2;0;0;0;0;0;7;0;4155;0;0;0;0;8;0;4188;0;0;0;0;9;0;2223;0;0;0;0
29.10.19;22:30:00;1;356;7491;0;2;0;3943;0;0;0;0;3;0;2429;0;0;0;0;4;0;3357;0;0;0;0;5;0;8428;2;0;0;0;0;0;6;0;6294;2;0;0;0;0;0;7;0;4155;0;0;0;0;8;0;4188;0;0;0;0;9;0;2223;0;0;0;0
29.10.19;22:25:00;1;267;7462;0;2;0;3943;0;0;0;0;3;0;2429;0;0;0;0;4;0;3357;0;0;0;0;5;0;8428;2;0;0;0;0;0;6;0;6294;2;0;0;0;0;0;7;0;4155;0;0;0;0;8;0;4188;0;0;0;0;9;0;2223;0;0;0;0
29.10.19;22:20:00;1;309;7440;0;2;0;3943;0;0;0;0;3;0;2429;0;0;0;0;4;0;3357;0;0;0;0;5;0;8428;2;0;0;0;0;0;6;0;6294;2;0;0;0;0;0;7;0;4155;0;0;0;0;8;0;4188;0;0;0;0;9;0;2223;0;0;0;0
29.10.19;22:15:00;1;304;7414;0;2;0;3943;0;0;0;0;3;0;2429;0;0;0;0;4;0;3357;0;0;0;0;5;0;8428;2;0;0;0;0;0;6;0;6294;2;0;0;0;0;0;7;0;4155;0;0;0;0;8;0;4188;0;0;0;0;9;0;2223;0;0;0;0
29.10.19;22:10:00;1;346;7388;0;2;0;3943;0;0;0;0;3;0;2429;0;0;0;0;4;0;3357;0;0;0;0;5;0;8428;2;0;0;0;0;0;6;0;6294;2;0;0;0;0;0;7;0;4155;0;0;0;0;8;0;4188;0;0;0;0;9;0;2223;0;0;0;0
29.10.19;22:05:00;1;338;7358;0;2;0;3943;0;0;0;0;3;0;2429;0;0;0;0;4;0;3357;0;0;0;0;5;0;8428;2;0;0;0;0;0;6;0;6294;2;0;0;0;0;0;7;0;4155;0;0;0;0;8;0;4188;0;0;0;0;9;0;2223;0;0;0;0
29.10.19;22:00:00;1;341;7330;0;2;0;3943;0;0;0;0;3;0;2429;0;0;0;0;4;0;3357;0;0;0;0;5;0;8428;2;0;0;0;0;0;6;0;6294;2;0;0;0;0;0;7;0;4155;0;0;0;0;8;0;4188;0;0;0;0;9;0;2223;0;0;0;0
29.10.19;21:55:00;1;387;7302;0;2;0;3943;0;0;0;0;3;0;2429;0;0;0;0;4;0;3357;0;0;0;0;5;0;8428;2;0;0;0;0;0;6;0;6294;2;0;0;0;0;0;7;0;4155;0;0;0;0;8;0;4188;0;0;0;0;9;0;2223;0;0;0;0
29.10.19;21:50:00;1;419;7268;0;2;0;3943;0;0;0;0;3;0;2429;0;0;0;0;4;0;3357;0;0;0;0;5;0;8428;2;0;0;0;0;0;6;0;6294;2;0;0;0;0;0;7;0;4155;0;0;0;0;8;0;4188;0;0;0;0;9;0;2223;0;0;0;0
29.10.19;21:45:00;1;387;7233;0;2;0;3943;0;0;0;0;3;0;2429;0;0;0;0;4;0;3357;0;0;0;0;5;0;8428;2;0;0;0;0;0;6;0;6294;2;0;0;0;0;0;7;0;4155;0;0;0;0;8;0;4188;0;0;0;0;9;0;2223;0;0;0;0
29.10.19;21:40:00;1;402;7201;0;2;0;3943;0;0;0;0;3;0;2429;0;0;0;0;4;0;3357;0;0;0;0;5;0;8428;2;0;0;0;0;0;6;0;6294;2;0;0;0;0;0;7;0;4155;0;0;0;0;8;0;4188;0;0;0;0;9;0;2223;0;0;0;0
29.10.19;21:35:00;1;314;7169;0;2;0;3943;0;0;0;0;3;0;2429;0;0;0;0;4;0;3357;0;0;0;0;5;0;8428;2;0;0;0;0;0;6;0;6294;2;0;0;0;0;0;7;0;4155;0;0;0;0;8;0;4188;0;0;0;0;9;0;2223;0;0;0;0
29.10.19;21:30:00;1;562;7143;0;2;0;3943;0;0;0;0;3;0;2429;0;0;0;0;4;0;3357;0;0;0;0;5;0;8428;2;0;0;0;0;0;6;0;6294;2;0;0;0;0;0;7;0;4155;0;0;0;0;8;0;4188;0;0;0;0;9;0;2223;0;0;0;0
29.10.19;21:25:00;1;320;7078;0;2;0;3943;0;0;0;0;3;0;2429;0;0;0;0;4;0;3357;0;0;0;0;5;0;8428;2;0;0;0;0;0;6;0;6294;2;0;0;0;0;0;7;0;4155;0;0;0;0;8;0;4188;0;0;0;0;9;0;2223;0;0;0;0
29.10.19;21:20:00;1;266;7052;0;2;0;3943;0;0;0;0;3;0;2429;0;0;0;0;4;0;3357;0;0;0;0;5;0;8428;2;0;0;0;0;0;6;0;6294;2;0;0;0;0;0;7;0;4155;0;0;0;0;8;0;4188;0;0;0;0;9;0;2223;0;0;0;0
29.10.19;21:15:00;1;267;7029;0;2;0;3943;0;0;0;0;3;0;2429;0;0;0;0;4;0;3357;0;0;0;0;5;0;8428;2;0;0;0;0;0;6;0;6294;2;0;0;0;0;0;7;0;4155;0;0;0;0;8;0;4188;0;0;0;0;9;0;2223;0;0;0;0
29.10.19;21:10:00;1;266;7007;0;2;0;3943;0;0;0;0;3;0;2429;0;0;0;0;4;0;3357;0;0;0;0;5;0;8428;2;0;0;0;0;0;6;0;6294;2;0;0;0;0;0;7;0;4155;0;0;0;0;8;0;4188;0;0;0;0;9;0;2223;0;0;0;0
29.10.19;21:05:00;1;307;6985;0;2;0;3943;0;0;0;0;3;0;2429;0;0;0;0;4;0;3357;0;0;0;0;5;0;8428;2;0;0;0;0;0;6;0;6294;2;0;0;0;0;0;7;0;4155;0;0;0;0;8;0;4188;0;0;0;0;9;0;2223;0;0;0;0
29.10.19;21:00:00;1;364;6959;0;2;0;3943;0;0;0;0;3;0;2429;0;0;0;0;4;0;3357;0;0;0;0;5;0;8428;2;0;0;0;0;0;6;0;6294;2;0;0;0;0;0;7;0;4155;0;0;0;0;8;0;4188;0;0;0;0;9;0;2223;0;0;0;0
29.10.19;20:55:00;1;324;6927;0;2;0;3943;0;0;0;0;3;0;2429;0;0;0;0;4;0;3357;0;0;0;0;5;0;8428;2;0;0;0;0;0;6;0;6294;2;0;0;0;0;0;7;0;4155;0;0;0;0;8;0;4188;0;0;0;0;9;0;2223;0;0;0;0
29.10.19;20:50:00;1;300;6901;0;2;0;3943;0;0;0;0;3;0;2429;0;0;0;0;4;0;3357;0;0;0;0;5;0;8428;2;0;0;0;0;0;6;0;6294;2;0;0;0;0;0;7;0;4155;0;0;0;0;8;0;4188;0;0;0;0;9;0;2223;0;0;0;0
29.10.19;20:45:00;1;268;6876;0;2;0;3943;0;0;0;0;3;0;2429;0;0;0;0;4;0;3357;0;0;0;0;5;0;8428;2;0;0;0;0;0;6;0;6294;2;0;0;0;0;0;7;0;4155;0;0;0;0;8;0;4188;0;0;0;0;9;0;2223;0;0;0;0
29.10.19;20:40:00;1;267;6854;0;2;0;3943;0;0;0;0;3;0;2429;0;0;0;0;4;0;3357;0;0;0;0;5;0;8428;2;0;0;0;0;0;6;0;6294;2;0;0;0;0;0;7;0;4155;0;0;0;0;8;0;4188;0;0;0;0;9;0;2223;0;0;0;0
29.10.19;20:35:00;1;313;6831;0;2;0;3943;0;0;0;0;3;0;2429;0;0;0;0;4;0;3357;0;0;0;0;5;0;8428;2;0;0;0;0;0;6;0;6294;2;0;0;0;0;0;7;0;4155;0;0;0;0;8;0;4188;0;0;0;0;9;0;2223;0;0;0;0
29.10.19;20:30:00;1;268;6804;0;2;0;3943;0;0;0;0;3;0;2429;0;0;0;0;4;0;3357;0;0;0;0;5;0;8428;2;0;0;0;0;0;6;0;6294;2;0;0;0;0;0;7;0;4155;0;0;0;0;8;0;4188;0;0;0;0;9;0;2223;0;0;0;0
29.10.19;20:25:00;1;267;6782;0;2;0;3943;0;0;0;0;3;0;2429;0;0;0;0;4;0;3357;0;0;0;0;5;0;8428;2;0;0;0;0;0;6;0;6294;2;0;0;0;0;0;7;0;4155;0;0;0;0;8;0;4188;0;0;0;0;9;0;2223;0;0;0;0
29.10.19;20:20:00;1;272;6760;0;2;0;3943;0;0;0;0;3;0;2429;0;0;0;0;4;0;3357;0;0;0;0;5;0;8428;2;0;0;0;0;0;6;0;6294;2;0;0;0;0;0;7;0;4155;0;0;0;0;8;0;4188;0;0;0;0;9;0;2223;0;0;0;0
29.10.19;20:15:00;1;321;6737;0;2;0;3943;0;0;0;0;3;0;2429;0;0;0;0;4;0;3357;0;0;0;0;5;0;8428;2;0;0;0;0;0;6;0;6294;2;0;0;0;0;0;7;0;4155;0;0;0;0;8;0;4188;0;0;0;0;9;0;2223;0;0;0;0
29.10.19;20:10:00;1;349;6710;0;2;0;3943;0;0;0;0;3;0;2429;0;0;0;0;4;0;3357;0;0;0;0;5;0;8428;2;0;0;0;0;0;6;0;6294;2;0;0;0;0;0;7;0;4155;0;0;0;0;8;0;4188;0;0;0;0;9;0;2223;0;0;0;0
29.10.19;20:05:00;1;381;6681;0;2;0;3943;0;0;0;0;3;0;2429;0;0;0;0;4;0;3357;0;0;0;0;5;0;8428;2;0;0;0;0;0;6;0;6294;2;0;0;0;0;0;7;0;4155;0;0;0;0;8;0;4188;0;0;0;0;9;0;2223;0;0;0;0
29.10.19;20:00:00;1;383;6648;0;2;0;3943;0;0;0;0;3;0;2429;0;0;0;0;4;0;3357;0;0;0;0;5;0;8428;2;0;0;0;0;0;6;0;6294;2;0;0;0;0;0;7;0;4155;0;0;0;0;8;0;4188;0;0;0;0;9;0;2223;0;0;0;0
29.10.19;19:55:00;1;380;6615;0;2;0;3943;0;0;0;0;3;0;2429;0;0;0;0;4;0;3357;0;0;0;0;5;0;8428;2;0;0;0;0;0;6;0;6294;2;0;0;0;0;0;7;0;4155;0;0;0;0;8;0;4188;0;0;0;0;9;0;2223;0;0;0;0
29.10.19;19:50:00;1;381;6584;0;2;0;3943;0;0;0;0;3;0;2429;0;0;0;0;4;0;3357;0;0;0;0;5;0;8428;2;0;0;0;0;0;6;0;6294;2;0;0;0;0;0;7;0;4155;0;0;0;0;8;0;4188;0;0;0;0;9;0;2223;0;0;0;0
29.10.19;19:45:00;1;407;6552;0;2;0;3943;0;0;0;0;3;0;2429;0;0;0;0;4;0;3357;0;0;0;0;5;0;8428;2;0;0;0;0;0;6;0;6294;2;0;0;0;0;0;7;0;4155;0;0;0;0;8;0;4188;0;0;0;0;9;0;2223;0;0;0;0
29.10.19;19:40:00;1;413;6517;0;2;0;3943;0;0;0;0;3;0;2429;0;0;0;0;4;0;3357;0;0;0;0;5;0;8428;2;0;0;0;0;0;6;0;6294;2;0;0;0;0;0;7;0;4155;0;0;0;0;8;0;4188;0;0;0;0;9;0;2223;0;0;0;0
29.10.19;19:35:00;1;378;6484;0;2;0;3943;0;0;0;0;3;0;2429;0;0;0;0;4;0;3357;0;0;0;0;5;0;8428;2;0;0;0;0;0;6;0;6294;2;0;0;0;0;0;7;0;4155;0;0;0;0;8;0;4188;0;0;0;0;9;0;2223;0;0;0;0
29.10.19;19:30:00;1;1047;6437;0;2;0;3943;0;0;0;0;3;0;2429;0;0;0;0;4;0;3357;0;0;0;0;5;0;8428;2;0;0;0;0;0;6;0;6294;2;0;0;0;0;0;7;0;4155;0;0;0;0;8;0;4188;0;0;0;0;9;0;2223;0;0;0;0
29.10.19;19:25:00;1;1022;6348;0;2;0;3943;0;0;0;0;3;0;2429;0;0;0;0;4;0;3357;0;0;0;0;5;0;8428;2;0;0;0;0;0;6;0;6294;2;0;0;0;0;0;7;0;4155;0;0;0;0;8;0;4188;0;0;0;0;9;0;2223;0;0;0;0
29.10.19;19:20:00;1;1953;6253;0;2;0;3943;0;0;0;0;3;0;2429;0;0;0;0;4;0;3357;0;0;0;0;5;0;8428;2;0;0;0;0;0;6;0;6294;2;0;0;0;0;0;7;0;4155;0;0;0;0;8;0;4188;0;0;0;0;9;0;2223;0;0;0;0
29.10.19;19:15:00;1;1764;6075;0;2;0;3943;0;0;0;0;3;0;2429;0;0;0;0;4;0;3357;0;0;0;0;5;0;8428;2;0;0;0;0;0;6;0;6294;2;0;0;0;0;0;7;0;4155;0;0;0;0;8;0;4188;0;0;0;0;9;0;2223;0;0;0;0
29.10.19;19:10:00;1;332;5900;0;2;0;3943;0;0;0;0;3;0;2429;0;0;0;0;4;0;3357;0;0;0;0;5;0;8428;2;0;0;0;0;0;6;0;6294;2;0;0;0;0;0;7;0;4155;0;0;0;0;8;0;4188;0;0;0;0;9;0;2223;0;0;0;0
29.10.19;19:05:00;1;207;5879;0;2;0;3943;0;0;0;0;3;0;2429;0;0;0;0;4;0;3357;0;0;0;0;5;0;8428;2;0;0;0;0;0;6;0;6294;2;0;0;0;0;0;7;0;4155;0;0;0;0;8;0;4188;0;0;0;0;9;0;2223;0;0;0;0
29.10.19;19:00:00;1;207;5861;0;2;0;3943;0;0;0;0;3;0;2429;0;0;0;0;4;0;3357;0;0;0;0;5;0;8428;2;0;0;0;0;0;6;0;6294;2;0;0;0;0;0;7;0;4155;0;0;0;0;8;0;4188;0;0;0;0;9;0;2223;0;0;0;0
29.10.19;18:55:00;1;250;5844;0;2;0;3943;0;0;0;0;3;0;2429;0;0;0;0;4;0;3357;0;0;0;0;5;0;8428;2;0;0;0;0;0;6;0;6294;2;0;0;0;0;0;7;0;4155;0;0;0;0;8;0;4188;0;0;0;0;9;0;2223;0;0;0;0
29.10.19;18:50:00;1;216;5824;0;2;0;3943;0;0;0;0;3;0;2429;0;0;0;0;4;0;3357;0;0;0;0;5;0;8428;2;0;0;0;0;0;6;0;6294;2;0;0;0;0;0;7;0;4155;0;0;0;0;8;0;4188;0;0;0;0;9;0;2223;0;0;0;0
29.10.19;18:45:00;1;208;5805;0;2;0;3943;0;0;0;0;3;0;2429;0;0;0;0;4;0;3357;0;0;0;0;5;0;8428;2;0;0;0;0;0;6;0;6294;2;0;0;0;0;0;7;0;4155;0;0;0;0;8;0;4188;0;0;0;0;9;0;2223;0;0;0;0
29.10.19;18:40:00;1;219;5788;0;2;0;3943;0;0;0;0;3;0;2429;0;0;0;0;4;0;3357;0;0;0;0;5;0;8428;2;0;0;0;0;0;6;0;6294;2;0;0;0;0;0;7;0;4155;0;0;0;0;8;0;4188;0;0;0;0;9;0;2223;0;0;0;0
29.10.19;18:35:00;1;249;5769;0;2;0;3943;0;0;0;0;3;0;2429;0;0;0;0;4;0;3357;0;0;0;0;5;0;8428;2;0;0;0;0;0;6;0;6294;2;0;0;0;0;0;7;0;4155;0;0;0;0;8;0;4188;0;0;0;0;9;0;2223;0;0;0;0
29.10.19;18:30:00;1;264;5748;0;2;0;3943;0;0;0;0;3;0;2429;0;0;0;0;4;0;3357;0;0;0;0;5;0;8428;2;0;0;0;0;0;6;0;6294;2;0;0;0;0;0;7;0;4155;0;0;0;0;8;0;4188;0;0;0;0;9;0;2223;0;0;0;0
29.10.19;18:25:00;1;287;5725;0;2;0;3943;0;0;0;0;3;0;2429;0;0;0;0;4;0;3357;0;0;0;0;5;0;8428;2;0;0;0;0;0;6;0;6294;2;0;0;0;0;0;7;0;4155;0;0;0;0;8;0;4188;0;0;0;0;9;0;2223;0;0;0;0
29.10.19;18:20:00;1;276;5700;0;2;0;3943;0;0;0;0;3;0;2429;0;0;0;0;4;0;3357;0;0;0;0;5;0;8428;2;0;0;0;0;0;6;0;6294;2;0;0;0;0;0;7;0;4155;0;0;0;0;8;0;4188;0;0;0;0;9;0;2223;0;0;0;0
29.10.19;18:15:00;1;206;5682;0;2;0;3943;0;0;0;0;3;0;2429;0;0;0;0;4;0;3357;0;0;0;0;5;0;8428;2;0;0;0;0;0;6;0;6294;2;0;0;0;0;0;7;0;4155;0;0;0;0;8;0;4188;0;0;0;0;9;0;2223;0;0;0;0
29.10.19;18:10:00;1;207;5664;0;2;0;3943;0;0;0;0;3;0;2429;0;0;0;0;4;0;3357;0;0;0;0;5;0;8428;2;0;0;0;0;0;6;0;6294;2;0;0;0;0;0;7;0;4155;0;0;0;0;8;0;4188;0;0;0;0;9;0;2223;0;0;0;0
29.10.19;18:05:00;1;207;5647;0;2;0;3943;0;0;0;0;3;0;2429;0;0;0;0;4;0;3357;0;0;0;0;5;0;8428;2;0;0;0;0;0;6;0;6294;2;0;0;0;0;0;7;0;4155;0;0;0;0;8;0;4188;0;0;0;0;9;0;2223;0;0;0;0
29.10.19;18:00:00;1;289;5629;0;2;0;3943;0;0;0;0;3;0;2429;0;0;0;0;4;0;3357;0;0;0;0;5;0;8428;2;0;0;0;0;0;6;0;6294;2;0;0;0;0;0;7;0;4155;0;0;0;0;8;0;4188;0;0;0;0;9;0;2223;0;0;0;0
29.10.19;17:55:00;1;270;5605;0;2;0;3943;0;0;0;0;3;0;2429;0;0;0;0;4;0;3357;0;0;0;0;5;0;8428;2;0;0;0;0;0;6;0;6294;2;0;0;0;0;0;7;0;4155;0;0;0;0;8;0;4188;0;0;0;0;9;0;2223;0;0;0;0
29.10.19;17:50:00;1;271;5582;0;2;0;3943;0;0;0;0;3;0;2429;0;0;0;0;4;0;3357;0;0;0;0;5;0;8428;2;0;0;0;0;0;6;0;6294;2;0;0;0;0;0;7;0;4155;0;0;0;0;8;0;4188;0;0;0;0;9;0;2223;0;0;0;0
29.10.19;17:45:00;1;312;5559;0;2;0;3943;0;0;0;0;3;0;2429;0;0;0;0;4;0;3357;0;0;0;0;5;0;8428;2;0;0;0;0;0;6;0;6294;2;0;0;0;0;0;7;0;4155;0;0;0;0;8;0;4188;0;0;0;0;9;0;2223;0;0;0;0
29.10.19;17:40:00;1;314;5533;0;2;0;3943;0;0;0;0;3;0;2429;0;0;0;0;4;0;3357;0;0;0;0;5;0;8428;2;0;0;0;0;0;6;0;6294;2;0;0;0;0;0;7;0;4155;0;0;0;0;8;0;4188;0;0;0;0;9;0;2223;0;0;0;0
29.10.19;17:35:00;1;371;5507;0;2;0;3943;0;0;0;0;3;0;2429;0;0;0;0;4;0;3357;0;0;0;0;5;0;8428;2;0;0;0;0;0;6;0;6294;2;0;0;0;0;0;7;0;4155;0;0;0;0;8;0;4188;0;0;0;0;9;0;2223;0;0;0;0
29.10.19;17:30:00;1;318;5476;0;2;0;3943;0;0;0;0;3;0;2429;0;0;0;0;4;0;3357;0;0;0;0;5;0;8428;2;0;0;0;0;0;6;0;6294;2;0;0;0;0;0;7;0;4155;0;0;0;0;8;0;4188;0;0;0;0;9;0;2223;0;0;0;0
29.10.19;17:25:00;1;230;5450;0;2;0;3943;0;0;0;0;3;0;2429;0;0;0;0;4;0;3357;0;0;0;0;5;0;8428;2;0;0;0;0;0;6;0;6294;2;0;0;0;0;0;7;0;4155;0;0;0;0;8;0;4188;0;0;0;0;9;0;2223;0;0;0;0
29.10.19;17:20:00;1;206;5431;0;2;0;3943;0;0;0;0;3;0;2429;0;0;0;0;4;0;3357;0;0;0;0;5;0;8428;2;0;0;0;0;0;6;0;6294;2;0;0;0;0;0;7;0;4155;0;0;0;0;8;0;4188;0;0;0;0;9;0;2223;0;0;0;0
29.10.19;17:15:00;1;218;5414;0;2;0;3943;0;0;0;0;3;0;2429;0;0;0;0;4;0;3357;0;0;0;0;5;0;8428;2;0;0;0;0;0;6;0;6294;2;0;0;0;0;0;7;0;4155;0;0;0;0;8;0;4188;0;0;0;0;9;0;2223;0;0;0;0
29.10.19;17:10:00;1;332;5396;0;2;0;3943;0;0;0;0;3;0;2429;0;0;0;0;4;0;3357;0;0;0;0;5;0;8428;2;0;0;0;0;0;6;0;6294;2;0;0;0;0;0;7;0;4155;0;0;0;0;8;0;4188;0;0;0;0;9;0;2223;0;0;0;0
29.10.19;17:05:00;1;445;5366;0;2;0;3943;0;0;84;6;3;0;2429;0;0;229;17;4;0;3357;0;0;0;0;5;0;8428;2;0;0;0;0;0;6;0;6294;2;0;0;0;0;0;7;0;4155;0;0;0;0;8;0;4188;0;0;0;0;9;0;2223;0;0;0;0
29.10.19;17:00:00;1;416;5331;0;2;0;3943;6;0;288;19;3;0;2429;6;0;323;21;4;0;3357;2;0;74;17;5;0;8428;2;0;0;0;0;0;6;0;6294;2;0;0;0;0;0;7;0;4155;0;0;0;0;8;0;4188;0;0;0;0;9;0;2223;0;0;0;0
29.10.19;16:55:00;1;678;5295;0;2;0;3943;6;0;320;19;3;0;2429;6;0;387;21;4;0;3357;1;0;107;17;5;0;8428;2;0;0;130;129;13;6;0;6294;1;2;1;59;89;9;7;0;4155;0;0;0;0;8;0;4188;0;0;0;0;9;0;2223;0;0;85;5
29.10.19;16:50:00;1;835;5237;0;2;0;3943;6;0;341;19;3;0;2429;6;1;394;22;4;0;3357;1;0;131;17;5;0;8428;26;0;0;368;411;28;6;0;6294;23;8;3;180;451;27;7;0;4155;0;0;212;16;8;0;4188;11;0;209;16;9;0;2223;6;0;229;12
29.10.19;16:45:00;1;867;5165;0;2;0;3943;6;0;364;19;3;0;2429;6;1;439;22;4;0;3357;1;0;168;17;5;0;8428;23;0;0;398;551;28;6;0;6294;23;6;3;203;526;27;7;0;4155;6;0;266;17;8;0;4188;0;0;280;16;9;0;2223;6;0;283;13
29.10.19;16:40:00;1;412;5095;0;2;0;3943;6;0;383;20;3;0;2429;6;2;462;22;4;0;3357;1;0;202;18;5;8;8428;4;0;1;402;632;28;6;0;6294;23;5;3;338;555;28;7;0;4155;0;0;313;16;8;0;4188;6;0;299;16;9;0;2223;0;0;253;9
29.10.19;16:35:00;1;248;5064;0;2;0;3943;6;0;402;20;3;0;2429;6;0;512;22;4;0;3357;1;0;223;18;5;75;8427;4;8;18;371;589;29;6;41;6294;1;22;29;499;478;29;7;1;4155;6;2;425;21;8;0;4188;6;2;429;21;9;0;2223;0;0;197;6
29.10.19;16:30:00;1;211;5043;0;2;3;3943;6;8;401;20;3;3;2429;3;5;501;22;4;0;3357;3;0;200;18;5;101;8421;4;24;30;371;589;29;6;67;6290;4;30;37;478;456;29;7;1;4155;6;4;448;21;8;3;4188;6;5;450;21;9;0;2223;6;0;102;3
29.10.19;16:25:00;1;377;5025;0;2;37;3943;6;57;364;21;3;5;2429;6;9;515;22;4;10;3357;3;10;199;19;5;150;8412;4;49;53;371;589;29;6;98;6284;4;26;34;478;456;29;7;1;4155;6;8;368;17;8;4;4188;6;8;470;21;9;0;2223;6;5;515;17
29.10.19;16:20:00;1;311;4993;0;2;66;3940;4;93;356;21;3;7;2428;6;13;526;22;4;26;3356;3;27;198;19;5;186;8399;4;74;67;371;589;29;6;123;6276;4;57;67;478;456;29;7;33;4155;0;54;284;17;8;17;4188;6;30;243;12;9;4;2223;6;7;306;10
29.10.19;16:15:00;1;355;4965;0;2;74;3935;4;101;369;21;3;12;2428;6;23;506;23;4;35;3354;3;36;198;19;5;195;8384;4;79;73;371;590;29;6;133;6265;4;67;77;478;456;29;7;53;4152;4;73;353;22;8;47;4186;4;75;360;21;9;4;2223;6;7;539;17
29.10.19;16:10:00;1;303;4936;0;2;70;3928;4;96;354;21;3;7;2427;6;13;526;23;4;28;3351;3;29;198;19;5;192;8367;4;78;69;371;589;29;6;130;6254;4;70;81;478;456;29;7;48;4148;4;74;355;22;8;48;4182;4;75;362;22;9;4;2223;3;9;528;17
29.10.19;16:05:00;1;313;4910;0;2;80;3922;4;107;365;21;3;5;2426;6;11;534;23;4;35;3349;3;37;198;19;5;222;8351;4;92;85;371;589;29;6;148;6243;4;69;77;478;456;29;7;38;4144;4;71;345;18;8;55;4178;4;86;427;22;9;4;2222;6;8;540;17
29.10.19;16:00:00;1;409;4884;0;2;134;3916;4;163;366;21;3;76;2426;4;110;478;24;4;90;3346;3;93;211;19;5;324;8333;4;146;130;371;590;29;6;218;6230;4;105;109;478;456;29;7;109;4140;4;145;441;22;8;104;4173;4;142;439;22;9;29;2222;6;38;521;17
29.10.19;15:55:00;1;529;4848;0;2;143;3905;4;172;363;22;3;77;2420;4;117;498;24;4;94;3338;5;98;208;19;5;328;8305;4;150;128;371;590;29;6;224;6212;4;104;109;478;456;29;7;73;4131;4;94;277;13;8;116;4164;4;154;457;22;9;12;2219;6;16;438;13
29.10.19;15:50:00;1;554;4806;0;2;132;3893;4;159;371;22;3;71;2413;4;110;495;24;4;86;3330;3;89;199;19;5;310;8278;4;138;120;371;589;29;6;209;6193;4;97;107;478;456;29;7;100;4121;4;133;462;22;8;92;4154;4;129;471;22;9;11;2218;6;16;550;18
29.10.19;15:45:00;1;538;4759;0;2;117;3882;4;147;362;22;3;65;2407;4;101;455;24;4;69;3323;3;72;199;19;5;283;8252;4;124;113;371;590;29;6;194;6175;4;93;99;478;456;29;7;95;4112;4;131;436;22;8;91;4147;4;127;443;22;9;16;2218;6;23;524;18
29.10.19;15:40:00;1;511;4715;0;2;149;3872;4;182;364;22;3;87;2401;4;123;465;24;4;111;3317;3;116;217;19;5;359;8228;4;167;149;371;589;29;6;243;6159;4;119;122;477;456;29;7;133;4105;4;167;427;22;8;133;4139;4;168;436;22;9;44;2216;6;58;399;14
29.10.19;15:35:00;1;491;4673;0;2;205;3859;4;236;376;22;3;123;2394;4;157;476;24;4;156;3308;5;163;221;19;5;462;8198;4;215;193;391;602;29;6;332;6138;4;162;176;506;538;29;7;161;4094;4;190;362;18;8;196;4128;4;234;424;22;9;34;2209;0;44;169;6
29.10.19;15:30:00;1;496;4631;0;2;223;3842;4;254;376;22;3;134;2384;4;171;463;24;4;176;3295;5;183;225;19;5;497;8159;4;238;205;395;617;29;6;369;6110;4;178;188;569;541;29;7;134;4073;0;146;261;13;8;210;4112;4;249;455;22;9;93;2202;0;114;400;15
29.10.19;15:25:00;1;583;4589;0;2;237;3824;4;271;379;22;3;144;2373;4;181;471;24;4;190;3280;5;197;225;19;5;522;8117;4;258;217;398;606;29;6;392;6079;4;183;193;566;544;29;7;216;4059;4;255;427;22;8;226;4094;4;260;444;22;9;119;2194;4;146;507;19
29.10.19;15:20:00;1;507;4542;0;2;269;3804;4;301;379;22;3;166;2361;4;204;484;24;4;220;3264;5;229;228;19;5;575;8073;4;276;250;395;621;29;6;434;6046;4;212;220;561;549;29;7;196;4041;4;225;347;17;8;193;4076;4;230;366;17;9;53;2184;4;64;208;7
29.10.19;15:15:00;1;1577;4500;0;2;271;3782;4;304;379;22;3;163;2347;4;200;460;24;4;218;3246;5;227;230;20;5;584;8025;4;281;246;401;618;29;6;437;6010;4;228;235;557;547;29;7;105;4021;4;120;175;8;8;262;4055;4;305;450;22;9;145;2174;4;172;495;19
29.10.19;15:10:00;1;2122;4356;0;2;284;3759;4;316;376;22;3;174;2333;4;213;487;24;4;232;3228;5;242;227;20;5;612;7977;4;288;261;399;623;29;6;458;5973;4;235;248;559;547;29;7;280;3999;4;321;462;22;8;278;4034;4;316;471;22;9;122;2161;4;146;406;15
29.10.19;15:05:00;1;2244;4174;0;2;322;3735;4;360;390;22;3;199;2319;4;237;494;23;4;271;3209;5;282;228;20;5;691;7925;4;348;295;405;629;29;6;516;5935;4;240;245;550;549;29;7;315;3976;4;351;469;22;8;251;4010;4;286;361;17;9;173;2149;4;200;503;19
29.10.19;15:00:00;1;1753;3988;0;2;302;3709;4;336;387;21;3;186;2302;4;226;493;23;4;250;3186;5;260;229;20;5;653;7867;4;312;277;399;633;29;6;486;5892;4;237;248;563;549;29;7;304;3950;4;339;449;22;8;300;3985;4;337;471;22;9;166;2135;4;194;503;19
29.10.19;14:55:00;1;385;3825;0;2;338;3684;4;378;394;21;3;210;2287;4;250;500;23;4;287;3165;5;299;231;20;5;756;7813;4;376;319;398;643;29;6;555;5851;4;279;289;575;555;29;7;355;3924;4;385;443;22;8;343;3959;4;381;478;22;9;190;2121;4;216;495;19
29.10.19;14:50:00;1;227;3795;0;2;386;3655;4;424;392;21;3;238;2269;4;282;492;23;4;330;3141;5;343;234;20;5;839;7749;4;412;360;405;631;29;6;629;5804;4;319;324;569;552;29;7;416;3895;4;444;452;22;8;415;3931;4;456;462;22;9;131;2105;4;150;301;11
29.10.19;14:45:00;1;223;3776;0;2;429;3623;4;469;391;21;3;265;2250;4;309;499;23;4;368;3114;5;383;231;20;5;929;7679;4;454;402;407;639;30;6;693;5752;4;352;356;578;561;29;7;452;3861;4;487;460;22;8;453;3896;4;487;468;22;9;197;2087;4;224;428;16
29.10.19;14:40:00;1;212;3758;0;2;508;3588;4;549;393;21;3;317;2228;4;366;505;23;4;438;3083;5;457;237;20;5;1062;7600;4;536;454;413;648;29;6;806;5693;4;411;415;578;562;29;7;540;3823;4;581;476;22;8;537;3858;4;586;468;22;9;174;2062;0;199;311;12
29.10.19;14:35:00;1;224;3739;0;2;461;3545;4;501;396;21;3;287;2201;4;331;497;23;4;397;3047;5;413;233;20;5;965;7512;4;475;416;415;635;29;6;730;5626;4;370;377;576;555;29;7;514;3778;4;540;459;22;8;511;3814;4;554;464;22;9;271;2043;4;308;523;20
29.10.19;14:30:00;1;229;3720;0;2;449;3507;4;490;392;21;3;279;2177;4;323;503;23;4;386;3014;5;402;231;20;5;964;7432;4;472;415;413;648;29;6;717;5566;4;361;373;566;552;29;7;484;3735;4;520;466;22;8;488;3771;4;529;471;22;9;155;2020;4;179;308;12
29.10.19;14:25:00;1;210;3701;0;2;533;3469;4;574;393;21;3;330;2154;4;380;501;23;4;463;2982;5;482;236;20;5;1137;7350;4;576;485;414;656;29;6;856;5505;4;431;441;579;563;29;7;370;3694;4;399;318;14;8;585;3730;4;627;467;22;9;309;1999;4;346;519;20
29.10.19;14:20:00;1;244;3683;0;2;522;3425;4;564;397;21;3;326;2126;4;373;506;23;4;451;2943;5;469;238;20;5;1088;7256;4;547;461;418;641;29;6;824;5433;4;414;429;582;564;29;7;567;3647;4;616;470;22;8;578;3681;4;621;468;22;9;311;1973;4;347;516;20
29.10.19;14:15:00;1;245;3663;0;2;516;3381;4;560;398;21;3;320;2099;4;371;514;23;4;454;2905;5;473;236;20;5;1094;7166;4;556;469;415;672;29;6;826;5365;4;432;433;579;566;29;7;563;3600;4;602;460;22;8;469;3634;4;507;395;18;9;302;1947;4;338;516;20
29.10.19;14:10:00;1;253;3642;0;2;512;3338;4;555;393;21;3;316;2073;4;366;494;23;4;443;2868;5;462;235;20;5;1065;7074;4;542;452;415;647;29;6;803;5296;4;407;409;583;549;29;7;558;3553;4;597;470;22;8;561;3587;4;605;473;22;9;300;1922;4;337;520;20
29.10.19;14:05:00;1;262;3621;0;2;448;3295;4;490;395;21;3;279;2046;4;325;508;23;4;386;2831;5;402;232;20;5;949;6986;4;475;405;407;637;30;6;709;5229;4;340;359;562;557;29;7;476;3506;4;520;454;22;8;489;3540;4;528;462;22;9;258;1897;4;295;512;20
29.10.19;14:00:00;1;241;3598;0;2;478;3258;4;518;395;21;3;298;2023;4;341;495;23;4;409;2798;5;426;235;20;5;1000;6907;4;505;426;417;638;30;6;754;5170;4;398;401;578;556;29;7;297;3466;4;321;282;13;8;498;3499;4;541;476;22;9;268;1875;4;303;519;20
29.10.19;13:55:00;1;251;3578;0;2;509;3218;4;550;393;21;3;316;1998;4;365;500;23;4;430;2764;5;448;234;20;5;1046;6823;4;524;452;407;644;30;6;788;5107;4;397;399;572;555;29;7;510;3425;4;548;460;23;8;511;3457;4;557;467;22;9;276;1853;4;311;517;20
29.10.19;13:50:00;1;251;3557;0;2;539;3176;4;582;392;22;3;334;1972;4;382;511;23;4;458;2728;5;476;237;20;5;1084;6736;4;547;466;405;662;30;6;817;5041;4;423;421;573;554;29;7;549;3383;4;588;465;23;8;547;3415;4;595;471;22;9;296;1830;4;333;519;20